Location: Oshawa
(43.9000°N, 78.8670°W)
Time: 16:55:36
(UTC-04:00)

Cosmos 1500 - Visible Passes

Search period start: 24 September 2016 00:00
Search period end: 04 October 2016 00:00
Orbit: 505 x 525 km, 82.5° (Epoch: 24 September)

Date Brightness Start Highest point End Pass type
(mag) Time Alt. Az. Time Alt. Az. Time Alt. Az.
24 Sep 4.3 04:39:11 10° N 04:41:57 42° NNE 04:41:57 42° NNE visible
25 Sep 5.4 04:24:03 10° N 04:25:33 21° NNE 04:25:33 21° NNE visible
26 Sep 6.1 04:08:58 10° N 04:09:27 13° N 04:09:27 13° N visible
